Вернуться в каталог

STARLINK-34778

АктивенСвязьVLEO
NORAD 65021·PAYLOAD·🇺🇸 United States

Запущен Jul 30, 2025 с Cape Canaveral Space Force Station

Loading…

Ближайшие Пролёты (ближайшие 24 часа)

TLE

СвежийSource: CelesTrak SupGP

Эпоха: Sep 14, 2026, 14:41 UTC

1 65021C 25161G   26257.61229167  .00051945  00000+0  15355-2 0  2576
2 65021  53.1567 135.4654 0001025 104.2343 192.7457 15.34350072    12

Отслеживайте STARLINK-34778 в реальном времени с AllMySat

Download on the App Store